Flag for U.S.A. Weather past 2 weeks in Clarksville, Tennessee, U.S.A.

Now
72 °F

Fog.


Feels Like: 69 °F
Forecast: 68 / 84 °F
Wind: No wind

Location: Outlaw Field

Current Time: Jul 5, 2015 at 12:24:57 AM

Latest Report: Jul 4, 2015 at 11:52 PM


Visibility: 5 mi

Pressure: 30.00 "Hg

Humidity: 91%

Dew point: 69 °F

Location of ClarksvilleLocation

Historic Weather in Clarksville — Graph

°F

Clarksville temperature yesterday

Maximum temperature yesterday: 80 °F (at 2:52 PM)
Minimum temperature yesterday: 71 °F (at 12:52 AM)
Average temperature yesterday: 75 °F

Past Weeks' High & Low Weather Summary

 TemperatureHumidityPressure
High91 °F (Jun 23, 3:52 PM)100% (Jun 30, 4:59 AM)30.14 "Hg (Jun 30, 4:59 AM)
Low57 °F (Jun 28, 4:52 AM)43% (Jun 24, 4:52 PM)29.81 "Hg (Jul 3, 2:52 AM)
Average77 °F79%29.95 "Hg
* Reported Jun 20 8:52 AM — Jul 4 11:02 PM, Clarksville, Weather by CustomWeather, © 2015

Note: Actual official high and low records may vary slightly from our data, if they occured in-between our weather recording intervals... More about our weather records

Advertising

Clarksville weather history for previous 24 hours

 ConditionsComfort  
Time TempWeatherWind HumidityBarometerVisibility
11:02 PM
Sat, Jul 4
72 °FFog.No wind91%30.01 "Hg3 mi
9:52 PM72 °FFog.No wind91%29.98 "Hg5 mi
8:52 PM73 °FClear.No wind84%29.97 "Hg6 mi
7:52 PM75 °FSunny.3 mph79%29.96 "Hg7 mi
6:52 PM77 °FSunny.3 mph74%29.95 "Hg8 mi
5:52 PM78 °FSunny.6 mph74%29.94 "Hg7 mi
4:52 PM80 °FBroken clouds.6 mph67%29.94 "Hg8 mi
3:52 PM80 °FPassing clouds.7 mph69%29.94 "Hg9 mi
2:52 PM80 °FMore clouds than sun.8 mph69%29.96 "Hg10 mi
1:52 PM79 °FMostly cloudy.8 mph72%29.97 "Hg10 mi
12:52 PM79 °FBroken clouds.5 mph74%29.98 "Hg10 mi
11:59 AM79 °FPassing clouds.5 mph74%30.00 "Hg10 mi
10:59 AM78 °FLight rain. Mostly cloudy.3 mph79%30.00 "Hg9 mi
9:52 AM76 °FMostly cloudy.No wind80%29.98 "Hg10 mi
8:52 AM74 °FCloudy.No wind88%29.98 "Hg10 mi
7:52 AM72 °FLow clouds.No wind93%29.97 "Hg9 mi
6:52 AM71 °FMore clouds than sun.3 mph96%29.95 "Hg9 mi
5:52 AM71 °FLight rain. Fog.5 mph96%29.93 "Hg2 mi
4:52 AM71 °FFog.5 mph96%29.91 "Hg4 mi
3:52 AM71 °FLow clouds.3 mph93%29.90 "Hg10 mi
2:52 AM71 °FMostly cloudy.No wind93%29.89 "Hg10 mi
1:52 AM71 °FMostly cloudy.No wind93%29.89 "Hg10 mi
12:52 AM71 °FPassing clouds.3 mph93%29.89 "Hg10 mi
Weather by CustomWeather, © 2015

See weather overviewHow to use our weather pages